Regional Weather Roundup
Issued by NWS

Home | Current Version | Previous Version | Text Only | Print | Product List | Glossary Off
Versions: 1 2 3 4 5 6 7 8 9 10 11 12 13 14 15 16 17 18 19 20 21 22 23 24 25 26 27 28 29 30 31 32 33 34 35 36 37 38 39 40 41 42 43 44 45 46 47 48 49 50

000
ASUS45 KTFX 270210
RWRMT
MONTANA REGIONAL WEATHER ROUNDUP
NATIONAL WEATHER SERVICE GREAT FALLS MT
800 PM MDT TUE MAY 26 2015

NOTE: "FAIR" INDICATES FEW OR NO CLOUDS BELOW 12000 FEET WITH NO
SIGNIFICANT WEATHER AND/OR OBSTRUCTIONS TO VISIBILITY.

MTZ001>007-043-270300-
WEST OF THE DIVIDE

CITY           SKY/WX    TMP DP  RH WIND       PRES   REMARKS
KALISPELL      PTCLDY    67  45  45 VRB5      29.92S
MISSOULA       PTSUNNY   64  42  44 NW18G24   29.93R
BUTTE          CLOUDY    55  43  63 NE7       29.97R
MULLAN PASS    PTSUNNY   46  40  79 NW5       30.02F
$$

MTZ008-052>055-270300-
SOUTHWEST MONTANA

CITY           SKY/WX    TMP DP  RH WIND       PRES   REMARKS
BOZEMAN        MOCLDY    65  45  48 SE3       29.91F
DILLON         CLOUDY    62  41  46 SE10      29.92R
W YELLOWSTONE  CLOUDY    45  43  93 S6        30.07F
$$

MTZ009-010-012-014-046-048-049-054-270300-
EAST SLOPES AND CENTRAL MONTANA

CITY           SKY/WX    TMP DP  RH WIND       PRES   REMARKS
CUT BANK       MOSUNNY   62  45  53 SW3       29.96S
GREAT FALLS    PTCLDY    62  49  62 NE9       29.94F
MALMSTROM AFB  PTCLDY    61  50  68 E8        29.95S
HELENA         LGT RAIN  66  49  54 N9        29.91S
$$

MTZ011-013-016-021-045-047-050-051-270300-
NORTH CENTRAL MONTANA

CITY           SKY/WX    TMP DP  RH WIND       PRES   REMARKS
HAVRE          CLOUDY    62  51  67 W12       29.92F
LEWISTOWN      PTCLDY    61  48  62 NW3       29.97S
N BAR RANCH    MOCLDY    61  48  63 CALM      29.99S
$$

MTZ017>020-022>027-061-062-270300-
NORTHEAST MONTANA

CITY           SKY/WX    TMP DP  RH WIND       PRES   REMARKS
GLASGOW        MOCLDY    74  40  29 CALM      29.86S
JORDAN           N/A     63  54  72 NW12      29.88S
SIDNEY         PTCLDY    68  50  52 CALM      29.87R
WOLF POINT     MOCLDY    75  50  41 SE3       29.85R
$$

MTZ028>42-056>058-270300-
SOUTHCENTRAL AND SOUTHEAST MONTANA

CITY           SKY/WX    TMP DP  RH WIND       PRES   REMARKS
BAKER          MOCLDY    65  48  54 S10       29.92R
BILLINGS       CLOUDY    57  52  83 NE5       29.95S
LIVINGSTON     MOCLDY    62  46  55 E16       29.93S
MILES CITY     CLOUDY    71  48  43 SE5       29.87R
$$

REGIONAL REPORTS...DAKOTAS

CITY           SKY/WX    TMP DP  RH WIND       PRES   REMARKS
WILLISTON      CLEAR     72  42  34 W3        29.86S
MINOT          MOCLDY    68  49  50 S3        29.86F
DICKINSON      CLEAR     67  48  50 S6        29.89R
BEACH          FAIR      63  48  59 S6        29.92R
CROSBY         FAIR      70  43  37 E5        29.87S
WATFORD CITY   MOCLDY    73  41  31 E7        29.86R
BISMARCK       PTCLDY    67  54  63 CALM      29.87S
GRAND FORKS    MOCLDY    70  49  47 W8        29.72S
FARGO          MOCLDY    68  52  56 SW7       29.75F
BUFFALO SD       N/A     64  46  52 S8        29.87R
RAPID CITY     PTCLDY    62  50  64 S7        29.95R
$$

REGIONAL REPORTS...WYOMING/IDAHO/WASHINGTON

CITY           SKY/WX    TMP DP  RH WIND       PRES   REMARKS
GILLETTE       MOCLDY    58  50  75 S13       29.95S
SHERIDAN       MOCLDY    59  50  72 NW6       29.94R
BUFFALO WY     MOCLDY    61  45  55 E5        29.97R
CODY           CLOUDY    54  48  82 NW9       30.00S
YELLOWSTONE LA   N/A     42  37  82 CALM      30.13S
IDAHO FALLS    CLOUDY    52  46  80 NE14      30.03R
SALMON         MOSUNNY   66  39  37 CALM      29.88S
BOISE          MOSUNNY   74  42  31 VRB6      29.86S
SPOKANE        PTSUNNY   61  49  64 NW7       29.95S
$$

REGIONAL REPORTS...ALBERTA

CITY           SKY/WX    TMP DP  RH WIND       PRES   REMARKS
EDMONTON       PTSUNNY   72  41  33 NE9       29.94R
CALGARY        PTSUNNY   59  46  63 W13G20    30.01S
LETHBRIDGE     PTSUNNY   61  46  59 NW7       29.96F
MEDICINE HAT   CLOUDY    66  48  52 S6        29.91R
$$

REGIONAL REPORTS...SASKATCHEWAN

CITY           SKY/WX    TMP DP  RH WIND       PRES   REMARKS
SWIFT CURRENT  PTCLDY    73  36  25 NW6       29.88S
REGINA         MOCLDY    73  43  33 W13       29.84R
SASKATOON      PTCLDY    70  45  40 NE15      29.89R
$$



USA.gov is the U.S. government's official web portal to all federal, state and local government web resources and services.